Location: Cave
(41.8160°N, 12.9350°E)
Time: 12:31:50
(UTC+02:00)

ISS - Pass Details

Date: 04 July 2019
Orbit: 409 x 418 km, 51.6° (Epoch: 17 July)

Event Time Altitude Azimuth Distance (km) Brightness Sun altitude
Exits shadow 04:54:32 - 268° (W) 1,874 -0.9 -7.4°
Reaches altitude 10° 04:55:36 10° 276° (W) 1,476 -1.4 -7.3°
Maximum altitude 04:58:31 28° 337° (NNW) 809 -2.1 -6.9°
Drops below altitude 10° 05:01:26 10° 39° (NE) 1,477 0.7 -6.4°
Sets 05:03:43 0° 52° (NE) 2,340 3.0 -6.1°
